IRIDIUM 144

Last updated on Fri Sep 11 2026 00:03:06 GMT+0000 (Coordinated Universal Time)

1 43249U 18030A 26253.48772471 .00000095 00000+0 26791-4 0 9994 2 43249 86.3908 254.7190 0002195 87.9731 272.1716 14.34217467442362
UTC large
Height (km)
Speed (km/s)
/
Latitude / Longitude
Inclination (degrees)
Orbital Period (minutes)
Azimuth
Elevation
Range (km)
Doppler Factor

Next 0 passes for location: London (51.5072 / 0.1276)

No passes found over London.
IRIDIUM 144